| time (UTC) | temp C | wind direction | speed KPH | gust KPH | rain 1hr cm | rain 24hr cm | rain mn cm | humidity % | barometer mb |
| 20260508100004 | 0 | 0 | 0.0 | 0.0 | 0.00 | 0.00 | 0.00 | 92 | 1005.8 |
| 20260508095004 | 0 | 0 | 0.0 | 0.0 | 0.00 | 0.00 | 0.00 | 92 | 1005.6 |
| 20260508094004 | 0 | 0 | 0.0 | 0.0 | 0.00 | 0.00 | 0.00 | 92 | 1005.4 |
| 20260508093004 | 0 | 0 | 0.0 | 0.0 | 0.00 | 0.00 | 0.00 | 91 | 1005.3 |
| 20260508092004 | 0 | 0 | 0.0 | 0.0 | 0.00 | 0.00 | 0.00 | 91 | 1005.3 |
| 20260508091025 | 0 | 0 | 0.0 | 0.0 | 0.00 | 0.00 | 0.00 | 90 | 1005.3 |
| 20260508090004 | 0 | 0 | 0.0 | 0.0 | 0.00 | 0.00 | 0.00 | 90 | 1005.1 |
| 20260508085004 | 0 | 0 | 0.0 | 0.0 | 0.00 | 0.00 | 0.00 | 90 | 1005.1 |
| 20260508084004 | 0 | 0 | 0.0 | 0.0 | 0.00 | 0.00 | 0.00 | 89 | 1005.1 |
| 20260508083003 | 0 | 0 | 0.0 | 0.0 | 0.00 | 0.00 | 0.00 | 88 | 1005.1 |
| 20260508082003 | 0 | 0 | 0.0 | 0.0 | 0.00 | 0.00 | 0.00 | 88 | 1005.2 |
| 20260508081004 | 1 | 0 | 0.0 | 0.0 | 0.00 | 0.00 | 0.00 | 88 | 1005.1 |
| 20260508080004 | 1 | 0 | 0.0 | 0.0 | 0.00 | 0.00 | 0.00 | 87 | 1005.0 |
| 20260508075003 | 1 | 0 | 0.0 | 0.0 | 0.00 | 0.00 | 0.00 | 85 | 1005.0 |
| 20260508074003 | 1 | 0 | 0.0 | 0.0 | 0.00 | 0.03 | 0.00 | 85 | 1005.0 |
| 20260508073003 | 2 | 0 | 0.0 | 0.0 | 0.00 | 0.03 | 0.00 | 83 | 1004.8 |
| 20260508072004 | 2 | 0 | 0.0 | 0.0 | 0.00 | 0.03 | 0.00 | 83 | 1004.9 |
| 20260508071024 | 2 | 0 | 0.0 | 0.0 | 0.00 | 0.03 | 0.00 | 81 | 1004.9 |
| 20260508070004 | 2 | 248 | 0.0 | 1.6 | 0.00 | 0.03 | 0.00 | 82 | 1005.0 |
| 20260508065003 | 2 | 262 | 0.0 | 11.3 | 0.00 | 0.03 | 0.00 | 85 | 1004.8 |
| 20260508064003 | 2 | 256 | 0.0 | 4.8 | 0.00 | 0.03 | 0.00 | 85 | 1004.9 |
| 20260508063004 | 2 | 252 | 0.0 | 3.2 | 0.00 | 0.03 | 0.00 | 83 | 1005.1 |
| 20260508062003 | 2 | 0 | 0.0 | 0.0 | 0.00 | 0.03 | 0.00 | 79 | 1005.3 |
| 20260508061003 | 2 | 252 | 0.0 | 1.6 | 0.00 | 0.03 | 0.00 | 79 | 1005.4 |
| 20260508060004 | 2 | 243 | 0.0 | 4.8 | 0.00 | 0.05 | 0.00 | 83 | 1005.4 |
| 20260508055003 | 2 | 243 | 1.6 | 11.3 | 0.00 | 0.08 | 0.00 | 83 | 1005.5 |
| 20260508054003 | 2 | 242 | 1.6 | 4.8 | 0.00 | 0.15 | 0.00 | 86 | 1005.6 |
| 20260508053003 | 2 | 247 | 0.0 | 6.4 | 0.00 | 0.18 | 0.00 | 89 | 1005.5 |
| 20260508052003 | 2 | 262 | 0.0 | 6.4 | 0.00 | 0.20 | 0.00 | 88 | 1005.6 |
| 20260508051003 | 2 | 270 | 0.0 | 4.8 | 0.00 | 0.20 | 0.00 | 85 | 1005.5 |
| 20260508050003 | 2 | 269 | 0.0 | 6.4 | 0.00 | 0.25 | 0.00 | 84 | 1005.6 |
| 20260508045024 | 2 | 268 | 0.0 | 6.4 | 0.00 | 0.25 | 0.00 | 85 | 1005.8 |
| 20260508044003 | 2 | 264 | 0.0 | 3.2 | 0.00 | 0.28 | 0.00 | 87 | 1005.8 |
| 20260508043003 | 2 | 0 | 0.0 | 0.0 | 0.00 | 0.28 | 0.00 | 87 | 1005.7 |
| 20260508042003 | 2 | 0 | 0.0 | 0.0 | 0.00 | 0.28 | 0.00 | 87 | 1005.9 |
| 20260508041003 | 2 | 0 | 0.0 | 0.0 | 0.00 | 0.30 | 0.00 | 83 | 1006.2 |
| 20260508040004 | 2 | 0 | 0.0 | 0.0 | 0.00 | 0.33 | 0.00 | 83 | 1006.3 |
| 20260508035003 | 2 | 0 | 0.0 | 0.0 | 0.00 | 0.36 | 0.33 | 85 | 1006.1 |
| 20260508034003 | 3 | 0 | 0.0 | 0.0 | 0.00 | 0.36 | 0.33 | 87 | 1006.2 |
| 20260508033004 | 3 | 0 | 0.0 | 0.0 | 0.00 | 0.36 | 0.33 | 84 | 1006.3 |
| 20260508032025 | 3 | 0 | 0.0 | 0.0 | 0.00 | 0.38 | 0.33 | 79 | 1006.2 |
| 20260508031004 | 3 | 0 | 0.0 | 0.0 | 0.00 | 0.38 | 0.33 | 81 | 1006.0 |
| 20260508030004 | 3 | 0 | 0.0 | 0.0 | 0.00 | 0.38 | 0.33 | 81 | 1005.9 |
| 20260508025004 | 4 | 277 | 0.0 | 4.8 | 0.00 | 0.38 | 0.33 | 77 | 1006.0 |
| 20260508024004 | 4 | 311 | 0.0 | 3.2 | 0.00 | 0.38 | 0.33 | 80 | 1005.8 |
| 20260508023025 | 4 | 0 | 0.0 | 0.0 | 0.00 | 0.38 | 0.33 | 72 | 1005.9 |
| 20260508022004 | 5 | 0 | 0.0 | 0.0 | 0.00 | 0.38 | 0.33 | 70 | 1005.8 |
| 20260508021004 | 5 | 0 | 0.0 | 0.0 | 0.00 | 0.38 | 0.33 | 67 | 1005.8 |
| 20260508020004 | 5 | 0 | 0.0 | 0.0 | 0.00 | 0.38 | 0.33 | 65 | 1005.9 |
| 20260508015004 | 6 | 311 | 0.0 | 1.6 | 0.00 | 0.38 | 0.33 | 62 | 1005.8 |
| 20260508014004 | 6 | 311 | 0.0 | 1.6 | 0.00 | 0.38 | 0.33 | 61 | 1005.8 |
| 20260508013004 | 7 | 317 | 0.0 | 3.2 | 0.00 | 0.41 | 0.33 | 59 | 1005.8 |
| 20260508012004 | 7 | 337 | 0.0 | 1.6 | 0.00 | 0.41 | 0.33 | 55 | 1005.8 |
| 20260508011004 | 8 | 335 | 0.0 | 6.4 | 0.00 | 0.43 | 0.33 | 51 | 1005.8 |
| 20260508010004 | 8 | 285 | 1.6 | 14.5 | 0.00 | 0.46 | 0.33 | 50 | 1005.7 |
| 20260508005003 | 8 | 283 | 3.2 | 17.7 | 0.00 | 0.48 | 0.33 | 51 | 1005.6 |
| 20260508004003 | 9 | 270 | 3.2 | 19.3 | 0.00 | 0.48 | 0.33 | 51 | 1005.4 |
| 20260508003004 | 9 | 282 | 4.8 | 20.9 | 0.00 | 0.48 | 0.33 | 50 | 1005.3 |
| 20260508002003 | 10 | 276 | 6.4 | 16.1 | 0.00 | 0.48 | 0.33 | 48 | 1005.3 |
| 20260508001003 | 10 | 271 | 8.0 | 24.1 | 0.00 | 0.48 | 0.33 | 47 | 1005.1 |
| 20260508000004 | 10 | 284 | 6.4 | 22.5 | 0.00 | 0.48 | 0.33 | 47 | 1005.1 |
| 20260507235004 | 11 | 277 | 4.8 | 22.5 | 0.00 | 0.48 | 0.33 | 45 | 1005.0 |
| 20260507234004 | 11 | 275 | 6.4 | 20.9 | 0.00 | 0.48 | 0.33 | 45 | 1004.7 |
| 20260507233004 | 11 | 280 | 6.4 | 24.1 | 0.00 | 0.51 | 0.33 | 45 | 1004.4 |
| 20260507232003 | 12 | 286 | 6.4 | 20.9 | 0.00 | 0.53 | 0.33 | 47 | 1004.2 |
| 20260507231003 | 12 | 279 | 4.8 | 24.1 | 0.00 | 0.58 | 0.33 | 47 | 1004.0 |
| 20260507230004 | 13 | 276 | 8.0 | 25.7 | 0.00 | 0.61 | 0.33 | 46 | 1003.6 |
| 20260507225003 | 13 | 285 | 6.4 | 30.6 | 0.00 | 0.64 | 0.33 | 47 | 1003.3 |
| 20260507224024 | 13 | 286 | 6.4 | 30.6 | 0.00 | 0.69 | 0.33 | 47 | 1003.0 |
| 20260507223003 | 15 | 272 | 8.0 | 24.1 | 0.00 | 0.81 | 0.33 | 44 | 1002.8 |
| 20260507222003 | 15 | 278 | 6.4 | 24.1 | 0.00 | 0.89 | 0.33 | 43 | 1002.7 |
| 20260507221003 | 16 | 274 | 9.7 | 22.5 | 0.00 | 0.94 | 0.33 | 38 | 1002.6 |
| 20260507220003 | 17 | 263 | 11.3 | 29.0 | 0.00 | 1.02 | 0.33 | 36 | 1002.5 |
| 20260507215003 | 17 | 266 | 9.7 | 29.0 | 0.00 | 1.04 | 0.33 | 36 | 1002.4 |
| 20260507214003 | 17 | 264 | 8.0 | 25.7 | 0.00 | 1.07 | 0.33 | 35 | 1002.4 |
| 20260507213003 | 17 | 258 | 9.7 | 20.9 | 0.00 | 1.12 | 0.33 | 40 | 1002.3 |
| 20260507212003 | 16 | 266 | 4.8 | 17.7 | 0.00 | 1.17 | 0.33 | 45 | 1002.2 |
| 20260507211003 | 16 | 264 | 4.8 | 17.7 | 0.00 | 1.22 | 0.33 | 45 | 1002.2 |
| 20260507210003 | 16 | 254 | 6.4 | 17.7 | 0.00 | 1.27 | 0.33 | 48 | 1002.2 |
| 20260507205003 | 16 | 265 | 8.0 | 19.3 | 0.00 | 1.32 | 0.33 | 46 | 1002.1 |
| 20260507204003 | 16 | 263 | 6.4 | 19.3 | 0.00 | 1.37 | 0.33 | 46 | 1002.0 |
| 20260507203003 | 16 | 270 | 6.4 | 19.3 | 0.00 | 1.45 | 0.33 | 46 | 1001.9 |
| 20260507202003 | 16 | 277 | 6.4 | 20.9 | 0.00 | 1.52 | 0.33 | 48 | 1001.9 |
| 20260507201003 | 16 | 248 | 6.4 | 16.1 | 0.00 | 1.55 | 0.33 | 51 | 1001.9 |
| 20260507200003 | 16 | 243 | 6.4 | 16.1 | 0.00 | 1.60 | 0.33 | 48 | 1001.9 |
| 20260507195024 | 16 | 235 | 6.4 | 16.1 | 0.00 | 1.60 | 0.33 | 48 | 1001.9 |
| 20260507194003 | 16 | 240 | 6.4 | 22.5 | 0.00 | 1.63 | 0.33 | 45 | 1001.9 |
| 20260507193003 | 17 | 231 | 9.7 | 22.5 | 0.00 | 1.65 | 0.33 | 43 | 1001.9 |
| 20260507192024 | 17 | 213 | 12.9 | 27.4 | 0.00 | 1.65 | 0.33 | 42 | 1002.0 |
| 20260507191003 | 17 | 220 | 11.3 | 24.1 | 0.00 | 1.65 | 0.33 | 44 | 1001.9 |
| 20260507190004 | 17 | 219 | 8.0 | 20.9 | 0.00 | 1.65 | 0.33 | 47 | 1002.0 |
| 20260507185003 | 17 | 228 | 8.0 | 17.7 | 0.00 | 1.65 | 0.33 | 48 | 1002.1 |
| 20260507184003 | 17 | 209 | 8.0 | 17.7 | 0.00 | 1.65 | 0.33 | 45 | 1002.2 |
| 20260507183003 | 16 | 227 | 8.0 | 19.3 | 0.00 | 1.65 | 0.33 | 47 | 1002.4 |
| 20260507182004 | 16 | 238 | 8.0 | 19.3 | 0.00 | 1.65 | 0.33 | 45 | 1002.5 |
| 20260507181004 | 17 | 207 | 8.0 | 25.7 | 0.00 | 1.65 | 0.33 | 45 | 1002.5 |
| 20260507180004 | 17 | 243 | 8.0 | 24.1 | 0.00 | 1.65 | 0.33 | 46 | 1002.6 |
| 20260507175025 | 17 | 255 | 8.0 | 17.7 | 0.00 | 1.65 | 0.33 | 50 | 1002.6 |
| 20260507174004 | 16 | 257 | 6.4 | 17.7 | 0.00 | 1.65 | 0.33 | 54 | 1002.8 |
| 20260507173004 | 16 | 260 | 4.8 | 14.5 | 0.00 | 1.65 | 0.33 | 50 | 1002.8 |
| 20260507172025 | 16 | 235 | 6.4 | 16.1 | 0.00 | 1.65 | 0.33 | 50 | 1002.9 |
| 20260507171025 | 17 | 230 | 9.7 | 20.9 | 0.00 | 1.65 | 0.33 | 45 | 1002.9 |
| 20260507170004 | 17 | 239 | 6.4 | 17.7 | 0.00 | 1.65 | 0.33 | 47 | 1002.9 |
| 20260507165004 | 17 | 218 | 6.4 | 22.5 | 0.00 | 1.65 | 0.33 | 47 | 1003.0 |
| 20260507164004 | 16 | 228 | 8.0 | 19.3 | 0.00 | 1.65 | 0.33 | 50 | 1003.2 |
| 20260507163004 | 16 | 254 | 4.8 | 14.5 | 0.00 | 1.65 | 0.33 | 52 | 1003.5 |
| 20260507162025 | 16 | 291 | 3.2 | 9.7 | 0.00 | 1.65 | 0.33 | 54 | 1003.6 |
| 20260507161004 | 16 | 265 | 4.8 | 12.9 | 0.00 | 1.65 | 0.33 | 52 | 1003.8 |
| 20260507160025 | 16 | 235 | 3.2 | 9.7 | 0.00 | 1.65 | 0.33 | 58 | 1003.8 |
| 20260507155004 | 16 | 255 | 6.4 | 12.9 | 0.00 | 1.65 | 0.33 | 54 | 1003.8 |
| 20260507154004 | 15 | 264 | 3.2 | 12.9 | 0.00 | 1.65 | 0.33 | 57 | 1003.9 |
| 20260507153025 | 15 | 236 | 3.2 | 12.9 | 0.00 | 1.65 | 0.33 | 57 | 1003.9 |
| 20260507152025 | 15 | 232 | 3.2 | 12.9 | 0.00 | 1.65 | 0.33 | 63 | 1004.0 |
| 20260507151004 | 15 | 315 | 1.6 | 6.4 | 0.00 | 1.65 | 0.33 | 61 | 1004.1 |
| 20260507150004 | 14 | 321 | 1.6 | 6.4 | 0.00 | 1.65 | 0.33 | 60 | 1004.2 |
| 20260507145004 | 14 | 342 | 3.2 | 9.7 | 0.00 | 1.65 | 0.33 | 61 | 1004.5 |
| 20260507144004 | 14 | 333 | 1.6 | 9.7 | 0.00 | 1.65 | 0.33 | 63 | 1004.6 |
| 20260507143004 | 13 | 292 | 3.2 | 12.9 | 0.00 | 1.65 | 0.33 | 67 | 1004.7 |
| 20260507142004 | 13 | 308 | 1.6 | 9.7 | 0.00 | 1.65 | 0.33 | 70 | 1004.9 |
| 20260507141025 | 13 | 287 | 3.2 | 9.7 | 0.00 | 1.65 | 0.33 | 68 | 1004.9 |
| 20260507140025 | 13 | 250 | 4.8 | 11.3 | 0.00 | 1.65 | 0.33 | 72 | 1004.9 |
| 20260507135004 | 13 | 261 | 3.2 | 12.9 | 0.00 | 1.65 | 0.33 | 70 | 1004.9 |
| 20260507134004 | 12 | 292 | 3.2 | 9.7 | 0.00 | 1.65 | 0.33 | 72 | 1005.0 |
| 20260507133004 | 12 | 288 | 3.2 | 16.1 | 0.00 | 1.65 | 0.33 | 72 | 1005.0 |
| 20260507132003 | 12 | 332 | 4.8 | 19.3 | 0.00 | 1.65 | 0.33 | 73 | 1005.2 |
| 20260507131003 | 12 | 271 | 4.8 | 12.9 | 0.00 | 1.65 | 0.33 | 71 | 1005.2 |
| 20260507130004 | 12 | 251 | 3.2 | 16.1 | 0.00 | 1.65 | 0.33 | 74 | 1005.1 |
| 20260507125004 | 12 | 274 | 3.2 | 12.9 | 0.00 | 1.65 | 0.33 | 78 | 1005.3 |
| 20260507124003 | 11 | 282 | 3.2 | 14.5 | 0.00 | 1.65 | 0.33 | 78 | 1005.2 |
| 20260507123003 | 11 | 260 | 4.8 | 16.1 | 0.00 | 1.65 | 0.33 | 78 | 1005.3 |
| 20260507122004 | 11 | 255 | 3.2 | 14.5 | 0.00 | 1.65 | 0.33 | 80 | 1005.5 |
| 20260507121003 | 10 | 278 | 1.6 | 9.7 | 0.00 | 1.65 | 0.33 | 84 | 1005.3 |
| 20260507120004 | 10 | 281 | 3.2 | 11.3 | 0.00 | 1.65 | 0.33 | 85 | 1005.7 |
| 20260507115003 | 9 | 270 | 1.6 | 8.0 | 0.00 | 1.65 | 0.33 | 84 | 1005.4 |
| 20260507114003 | 8 | 276 | 3.2 | 11.3 | 0.00 | 1.65 | 0.33 | 87 | 1006.0 |
| 20260507113004 | 8 | 287 | 1.6 | 6.4 | 0.00 | 1.65 | 0.33 | 92 | 1005.7 |
| 20260507112003 | 8 | 294 | 0.0 | 4.8 | 0.00 | 1.65 | 0.33 | 93 | 1005.6 |
| 20260507111003 | 7 | 298 | 1.6 | 8.0 | 0.00 | 1.65 | 0.33 | 93 | 1005.4 |
| 20260507110024 | 7 | 275 | 1.6 | 11.3 | 0.00 | 1.65 | 0.33 | 93 | 1005.5 |
| 20260507105003 | 7 | 281 | 1.6 | 9.7 | 0.00 | 1.65 | 0.33 | 94 | 1005.6 |
| 20260507104003 | 7 | 303 | 0.0 | 4.8 | 0.00 | 1.65 | 0.33 | 94 | 1005.2 |
| 20260507103003 | 7 | 304 | 0.0 | 4.8 | 0.00 | 1.65 | 0.33 | 95 | 1005.4 |
| 20260507102003 | 7 | 0 | 0.0 | 0.0 | 0.00 | 1.65 | 0.33 | 94 | 1005.0 |
| 20260507101003 | 6 | 304 | 0.0 | 1.6 | 0.00 | 1.65 | 0.33 | 95 | 1005.2 |